Flag for China Weather past 2 weeks in Nanjing, Jiangsu, China

Now
79 °F

Clear.


Feels Like: 83 °F
Forecast: 76 / 92 °F
Wind: 3 mph from South

Location: Nanjing

Current Time: Jul 31, 2014 at 6:01:42 AM

Latest Report: Jul 31, 2014 at 5:00 AM


Visibility: 4 mi

Pressure: 29.65 "Hg

Humidity: 94%

Dew point: 77 °F

Location of NanjingLocation

Historic Weather in Nanjing — Graph

°F

Nanjing temperature yesterday

Maximum temperature yesterday: 97 °F (at 12:00 PM)
Minimum temperature yesterday: 81 °F (at 4:00 AM)
Average temperature yesterday: 89 °F

Past Weeks' High & Low Weather Summary

 TemperatureHumidityPressure
High99 °F (Jul 21, 4:00 PM)100% (Jul 20, 5:00 AM)29.86 "Hg (Jul 20, 5:00 AM)
Low73 °F (Jul 28, 2:00 AM)50% (Jul 21, 4:00 PM)29.30 "Hg (Jul 25, 2:00 AM)
Average84 °F81%29.70 "Hg
* Reported Jul 16 5:00 AM — Jul 31 5:00 AM, Nanjing, Weather by CustomWeather, © 2014

Note: Actual official high and low records may vary slightly from our data, if they occured in-between our weather recording intervals... More about our weather records

Advertising

Nanjing weather history for previous 24 hours

 ConditionsComfort  
Time TempWeatherWind HumidityBarometerVisibility
5:00 AM
Jul 31
79 °FClear.3 mph94%29.65 "Hg4 mi
4:00 AM77 °FPassing clouds.3 mph94%29.65 "Hg5 mi
3:00 AM79 °FThunderstorms. Passing clouds.13 mph89%29.65 "HgN/A
2:00 AM81 °FMostly cloudy.6 mph79%29.71 "HgN/A
1:00 AM84 °FClear.6 mph84%29.68 "Hg4 mi
12:00 AM86 °FClear.6 mph79%29.65 "Hg4 mi
11:00 PM
Jul 30
86 °FClear.8 mph75%29.68 "Hg10 mi
10:00 PM88 °FClear.8 mph70%29.65 "Hg10 mi
9:00 PM88 °FClear.8 mph70%29.62 "Hg10 mi
8:00 PM90 °FClear.8 mph71%29.62 "Hg10 mi
7:00 PM91 °FSunny.6 mph71%29.59 "Hg10 mi
6:00 PM95 °FPassing clouds.3 mph53%29.59 "HgN/A
5:00 PM95 °FPassing clouds.6 mph50%29.59 "HgN/A
4:00 PM95 °FPassing clouds.8 mph56%29.59 "HgN/A
3:00 PM95 °FPassing clouds.6 mph56%29.62 "HgN/A
2:00 PM95 °FPassing clouds.6 mph60%29.62 "HgN/A
1:00 PM95 °FPassing clouds.6 mph56%29.65 "HgN/A
12:00 PM97 °FScattered clouds.3 mph53%29.68 "HgN/A
11:00 AM93 °FScattered clouds.6 mph59%29.68 "HgN/A
10:00 AM93 °FClear.3 mph67%29.71 "Hg5 mi
9:00 AM90 °FClear.3 mph75%29.68 "Hg4 mi
8:00 AM88 °FFog.6 mph79%29.68 "Hg2 mi
7:00 AM84 °FFog.3 mph84%29.68 "Hg2 mi
6:00 AM81 °FFog.3 mph94%29.68 "Hg1 mi
Weather by CustomWeather, © 2014

See weather overviewHow to use our weather pages